Regional Weather Roundup
Issued by NWS Upton, NY

Current Version | Previous Version | Graphics & Text | Print | Product List | Glossary Off
Versions: 1 2 3 4 5 6 7 8 9 10 11 12 13 14 15 16 17 18 19 20 21 22 23 24 25 26 27 28 29 30 31 32 33 34 35 36 37 38 39 40 41 42 43 44 45 46 47 48 49 50

000
ASUS41 KOKX 300718
RWROKX

REGIONAL WEATHER ROUNDUP
NATIONAL WEATHER SERVICE NEW YORK NY
300 AM EDT SAT MAY 30 2015

NOTE: "FAIR" INDICATES FEW OR NO CLOUDS BELOW 12,000 FEET WITH NO
SIGNIFICANT WEATHER AND/OR OBSTRUCTIONS TO VISIBILITY.

NYZ071-072-176-178-NJZ106-104-300800-
NEW YORK CITY METRO AREA


CITY           SKY/WX    TMP DP  RH WIND       PRES   REMARKS
CENTRAL PARK   MOCLDY    67  60  78 CALM      30.22F
LAGUARDIA APRT MOCLDY    66  60  81 S7        30.19F
KENNEDY INTL   MOCLDY    64  61  88 S9        30.21F
NEWARK/LIBERTY MOCLDY    67  62  84 S6        30.19F
BRNX BOT. GARD   N/A    N/A N/A N/A NE2       30.19S
TETERBORO      PTCLDY    67  60  78 SW3       30.19S
$$

NYZ177-179-078>081-300800-
LONG ISLAND NEW YORK

CITY           SKY/WX    TMP DP  RH WIND       PRES   REMARKS
FARMINGDALE    MOCLDY    63  61  93 S6        30.21F
ISLIP          MOCLDY    62  60  93 S3        30.20F
SHIRLEY        CLOUDY    63  61  93 SW5       30.22F
WESTHAMPTON    FOG       61  61 100 S3        30.23F VSB 1/4
MONTAUK POINT    N/A     60  58  92 SW5       30.24S
$$

NYZ052-065-067-300800-
HUDSON VALLEY

CITY           SKY/WX    TMP DP  RH WIND       PRES   REMARKS
WHITE PLAINS   PTCLDY    61  59  93 CALM      30.20F FOG
NEWBURGH       PTCLDY    66  61  82 CALM      30.20F
MONTGOMERY     CLEAR     60  58  92 CALM      30.18F
POUGHKEEPSIE   PTCLDY    62  58  86 CALM      30.17F
ALBANY         PTCLDY    68  57  68 S9        30.14F
$$

NJZ001-105-106-008-010-013-015-019>022-104-300800-
NEW JERSEY

CITY           SKY/WX    TMP DP  RH WIND       PRES   REMARKS
NEWARK/LIBERTY MOCLDY    67  62  84 S6        30.19F
TETERBORO      PTCLDY    67  60  78 SW3       30.19S
CALDWELL       PTCLDY    64  58  80 CALM      30.20S
MORRISTOWN     PTCLDY    61  57  88 CALM      30.20F
SOMERVILLE     PTCLDY    62  58  86 CALM      30.18F
SUSSEX         CLOUDY    61  57  87 W3        30.20F
ANDOVER          N/A     66  60  81 S3        30.19F
TRENTON        PTCLDY    67  62  84 S7        30.19F
MILLVILLE      CLEAR     66  65  96 CALM      30.21S
ATLANTIC CITY  PTCLDY    68  64  87 S5        30.21S
WRIGHTSTOWN    PTCLDY    63  62  99 CALM      30.18F
TOMS RIVER     PTCLDY   N/A N/A N/A CALM      30.21S
BELMAR         PTCLDY    64  57  77 CALM      30.22S
$$

PAZ047>061-062-071-300800-
EASTERN PENNSYLVANIA

CITY           SKY/WX    TMP DP  RH WIND       PRES   REMARKS
PHILADELPHIA   MOCLDY    70  65  84 S6        30.20S
ALLENTOWN      MOCLDY    70  63  78 SW5       30.19F
SCRANTON       PTCLDY    71  64  78 S3        30.16F
$$

CTZ002-004>006-009-010-012-RIZ004-006-007-MAZ004-011-015-300800-
SOUTHERN NEW ENGLAND
 IN CT

CITY           SKY/WX    TMP DP  RH WIND       PRES   REMARKS
BRADLEY INTL   PTCLDY    61  57  87 CALM      30.19F
HARTFORD       CLEAR     61  58  90 S5        30.20F
DANBURY        CLEAR     59  55  87 S6        30.22R
WTRBRY/OXFORD  CLEAR     59  52  77 CALM      30.22F
BRIDGEPORT     PTCLDY    63  61  93 S7        30.20F
MERIDEN        MOCLDY    58  54  86 CALM      30.20F
NEW HAVEN      FOG       59  58  96 E5        30.21S VSB 1/2
CHESTER        FOG       57  57 100 CALM      30.22F VSB<1/4
GROTON         FOG       56  55  97 SE3       30.21F VSB 1/4
WILLIMANTIC    PTCLDY    55  53  93 CALM      30.21F

 IN RI

CITY           SKY/WX    TMP DP  RH WIND       PRES   REMARKS
PROVIDENCE     FOG       58  57  97 S5        30.22F VSB 1/4
BLOCK ISLAND   CLOUDY    57  54  88 SW9       30.23F VSB 3/4
WESTERLY       FOG       57  56  96 S5        30.22F VSB 1/4

 IN MA

CITY           SKY/WX    TMP DP  RH WIND       PRES   REMARKS
BOSTON         PTCLDY    60  56  86 CALM      30.20F
WORCESTER      CLEAR     59  53  80 W9        30.21F
WESTFIELD      CLEAR     60  56  86 SE5       30.19F
PROVINCETOWN   CLOUDY    57  55  94 SW10      30.22S VSB 3/4
NANTUCKET      FOG       61  59  93 SW7       30.24R VSB 1
$$

ANZ330-335-338-340-345-350-353-355-300800-
COASTAL MARINE OBSERVATIONS


STATION/POSITION TIME  SKY/WX   TEMP    WIND        PRES    VSBY  WAVE
                                AIR SEA DIR/SP/G                  HT/PER
                 (UTC)          (F)     (DEG/KT/KT) (MB)    (MI)  (FT/S)
NY HARB ENTRANCE 0650            61 62  330/  4/  6 1023.0          2/ 9
4S FIRE IS       0603               60                N/A           2/ 9
20S FIRE ISLAND  0650            61 59     CALM     1023.4          2/ 8
GREAT SOUTH BAY  0600            65 69  250/  8/ 10   N/A
23SW MTP         0650            56 56  280/  2/  2 1023.5          2/ 9
HUDSON CANYON    NOT AVBL
KINGS POINT      0600            64 59  180/  6/ 11 1022.3
CENTRAL LI SOUND 0600            59 60  210/  4/  8   N/A
EASTERN LI SOUND 0600            54     120/  2/  4   N/A
ROBBINS REEF     0600            64     180/  8/  8 1021.7
$$


>>>>>>>>>>>>>>>>>>>>>>>>>>>> KEY <<<<<<<<<<<<<<<<<<<<<<<<<<<
>                                                          <
>     SKY/WX - SKY CONDITION/PRESENT WEATHER               <
>     TMP    - TEMPERATURE IN FAHRENHEIT                   <
>     DP     - DEWPOINT IN FAHRENHEIT                      <
>     RH     - RELATIVE HUMIDITY IN PERCENT                <
>     WIND   - DIRECTION AND SPEED IN MPH                  <
>     PRES   - MEAN SEA LEVEL PRESSURE IN INCHES OF HG     <
>     WCI    - WIND CHILL INDEX                            <
>     VSB    - VISIBILITY IN MILES                         <
>     HX     - HEAT INDEX                                  <
>     TC     - TEMPERATURE IN CELSIUS                      <
>     VRB    - VARIABLE WIND DIRECTION                     <
>                                                          <
>>>>>>>>>>>>>>>>>>>>>>>>>>>> KEY <<<<<<<<<<<<<<<<<<<<<<<<<<<





USA.gov is the U.S. government's official web portal to all federal, state and local government web resources and services.